DW6873 Weather Reports


Display with metric or nautical units.
time (UTC)temp
F
wind
direction
speed
MPH
gust
MPH
rain 1hr
in
rain 24hr
in
rain mn
in
humidity
%
barometer
mb
20260902044556 52 110 0.0 0.0 0.00 0.00 0.00 90 1010.8
20260902043056 53 110 0.0 0.0 0.00 0.00 0.00 90 1010.8
20260902041549 54 110 0.0 0.0 0.00 0.00 0.00 87 1010.8
20260902040047 55 122 0.0 0.0 0.00 0.00 0.00 88 1010.9
20260902034543 55 267 0.0 0.0 0.00 0.00 0.00 89 1010.9
20260902033042 56 267 0.0 0.0 0.00 0.00 0.00 88 1010.8
20260902031540 56 206 0.0 0.0 0.00 0.00 0.00 88 1010.8
20260902030036 57 206 0.0 0.0 0.00 0.00 0.00 85 1010.9
20260902024504 57 205 0.0 0.0 0.00 0.00 0.00 83 1011.0
20260902023114 59 204 0.0 0.0 0.00 0.00 0.00 80 1010.9
20260902021530 60 200 0.0 0.0 0.00 0.00 0.00 79 1010.7
20260902020029 63 208 0.0 0.0 0.00 0.00 0.00 75 1010.6
20260902014533 65 208 0.0 0.0 0.00 0.00 0.00 72 1010.4
20260902013027 66 230 0.0 0.0 0.00 0.00 0.00 68 1010.5
20260902011527 68 153 0.0 0.0 0.00 0.00 0.00 65 1010.4
20260902010050 69 125 0.0 0.0 0.00 0.00 0.00 61 1010.5
20260902004522 71 145 0.0 0.0 0.00 0.00 0.00 59 1010.5
20260902003021 72 149 0.0 0.0 0.00 0.00 0.00 57 1010.6
20260902001520 74 181 0.0 0.0 0.00 0.00 0.00 54 1010.7
20260902000033 75 167 0.0 0.0 0.00 0.00 0.00 51 1010.7
20260901234516 76 165 0.0 0.0 0.00 0.00 0.00 49 1010.6
20260901233016 77 190 0.0 0.0 0.00 0.00 0.00 49 1010.7
20260901231516 78 192 0.0 0.0 0.00 0.00 0.00 46 1010.8
20260901230027 78 115 0.0 0.0 0.00 0.00 0.00 43 1010.7
20260901224546 78 135 0.0 0.0 0.00 0.00 0.00 44 1010.7
20260901223051 77 193 0.0 0.0 0.00 0.00 0.00 45 1010.7
20260901221515 77 199 0.0 0.0 0.00 0.00 0.00 43 1010.8
20260901220012 78 67 0.0 0.0 0.00 0.00 0.00 41 1011.0
20260901214513 78 23 0.0 0.0 0.00 0.00 0.00 44 1011.0
20260901213009 78 67 0.0 0.0 0.00 0.00 0.00 43 1011.1
20260901211518 78 1 0.0 0.0 0.00 0.00 0.00 41 1011.0
20260901210008 78 271 0.0 0.0 0.00 0.00 0.00 40 1011.2
20260901204538 78 260 0.0 0.0 0.00 0.00 0.00 46 1011.3
20260901203040 77 300 0.0 0.0 0.00 0.00 0.00 39 1011.4
20260901201534 77 266 0.0 0.0 0.00 0.00 0.00 47 1011.6
20260901200044 77 249 0.0 0.0 0.00 0.00 0.00 45 1011.7
20260901194550 77 244 0.0 0.0 0.00 0.00 0.00 40 1011.8
20260901193032 77 262 0.0 0.0 0.00 0.00 0.00 41 1012.0
20260901191533 77 221 0.0 0.0 0.00 0.00 0.00 41 1012.2
20260901190034 78 211 0.0 0.0 0.00 0.00 0.00 43 1012.3
20260901184529 78 311 0.0 0.0 0.00 0.00 0.00 42 1012.3
20260901183026 78 222 0.0 0.0 0.00 0.00 0.00 40 1012.3
20260901181528 77 156 0.0 0.0 0.00 0.00 0.00 42 1012.4
20260901180030 78 213 0.0 0.0 0.00 0.00 0.00 44 1012.7
20260901174520 77 213 0.0 0.0 0.00 0.00 0.00 44 1012.8
20260901173018 76 185 0.0 0.0 0.00 0.00 0.00 41 1012.9
20260901171517 76 130 0.0 0.0 0.00 0.00 0.00 43 1013.0
20260901170024 75 101 0.0 0.0 0.00 0.00 0.00 47 1013.0
20260901164514 75 59 0.0 0.0 0.00 0.00 0.00 46 1013.2
20260901163017 74 158 0.0 0.0 0.00 0.00 0.00 50 1013.2
20260901161507 73 30 0.0 0.0 0.00 0.00 0.00 51 1013.2
20260901160039 73 22 0.0 0.0 0.00 0.00 0.00 49 1013.2
20260901154534 72 351 0.0 0.0 0.00 0.00 0.00 51 1013.1
20260901153028 72 307 0.0 0.0 0.00 0.00 0.00 54 1013.3
20260901151528 72 358 0.0 0.0 0.00 0.00 0.00 58 1013.1
20260901150027 71 23 0.0 0.0 0.00 0.00 0.00 59 1013.2
20260901144523 70 23 0.0 0.0 0.00 0.00 0.00 60 1013.2
20260901143054 69 73 0.0 0.0 0.00 0.00 0.00 61 1013.1
20260901141550 68 241 0.0 0.0 0.00 0.00 0.00 65 1013.2
20260901140021 65 241 0.0 0.0 0.00 0.00 0.00 69 1013.1
20260901134513 61 217 0.0 0.0 0.00 0.00 0.00 79 1013.2
20260901133005 58 255 0.0 0.0 0.00 0.00 0.00 80 1013.3
20260901131624 56 220 0.0 0.0 0.00 0.00 0.00 80 1013.3
20260901124559 51 232 0.0 0.0 0.00 0.00 0.00 87 1013.0
20260901123050 0 0.0 0.0 0.00 0.00 0.00 1013.0
20260901121547 0 0.0 0.0 0.00 0.00 0.00 1012.9
20260901120042 0 0.0 0.0 0.00 0.00 0.00 1012.8
20260901114538 0 0.0 0.0 0.00 0.00 0.00 1012.7
20260901113030 0 0.0 0.0 0.00 0.00 0.00 1012.7
20260901111526 0 0.0 0.0 0.00 0.00 0.00 1012.6
20260901110022 0 0.0 0.0 0.00 0.00 0.00 1012.7
20260901104525 0 0.0 0.0 0.00 0.00 0.00 1012.4
20260901103010 0 0.0 0.0 0.00 0.00 0.00 1012.7
20260901101508 52 217 0.0 0.0 0.00 0.00 0.00 81 1012.6
20260901100009 51 220 0.0 0.0 0.00 0.00 0.00 84 1012.4
20260901094507 50 220 0.0 0.0 0.00 0.00 0.00 86 1012.2
20260901093005 50 220 0.0 0.0 0.00 0.00 0.00 86 1012.3
20260901091504 50 244 0.0 0.0 0.00 0.00 0.00 86 1012.2
20260901090009 50 244 0.0 0.0 0.00 0.00 0.00 87 1012.4
20260901084504 50 230 0.0 0.0 0.00 0.00 0.00 86 1012.4
20260901083059 50 236 0.0 0.0 0.00 0.00 0.00 86 1012.3
20260901081605 51 230 0.0 0.0 0.00 0.00 0.00 84 1012.4
20260901080057 51 265 0.0 0.0 0.00 0.00 0.00 85 1012.4
20260901074556 51 239 0.0 0.0 0.00 0.00 0.00 85 1012.5
20260901073053 52 257 0.0 0.0 0.00 0.00 0.00 83 1012.6
20260901071552 52 257 0.0 0.0 0.00 0.01 0.00 83 1012.5
20260901070049 50 220 0.0 0.0 0.00 0.01 0.00 85 1012.2
20260901064549 51 231 0.0 0.0 0.00 0.01 0.00 85 1012.3
20260901063017 51 236 0.0 0.0 0.00 0.01 0.00 84 1012.2
20260901061517 51 245 0.0 0.0 0.00 0.01 0.00 84 1012.2
20260901060013 50 218 0.0 0.0 0.00 0.01 0.00 84 1012.0
20260901054510 52 217 0.0 0.0 0.00 0.01 0.00 82 1012.0
20260901053009 52 220 0.0 0.0 0.00 0.01 0.00 82 1011.9
20260901051510 53 246 0.0 0.0 0.00 0.01 0.00 81 1011.8
20260901050106 53 214 0.0 0.0 0.00 0.01 0.00 81 1011.7